Zurück zum Katalog

SL-14 DEB

AktivPO
NORAD 45286·DEBRIS·🇷🇺 Russia

Gestartet Aug 15, 1991 von Plesetsk Cosmodrome

Loading…

Nächste Überflüge (nächste 24 Stunden)

TLE

AktuellSource: Space-Track

Epoche: Sep 14, 2026, 12:00 UTC

1 45286U 91056Y   26257.50051798 -.00000010  00000-0 -58440-4 0  9991
2 45286  82.6246  98.6302 0023473 312.3418  47.5715 13.15740641315532

Verfolge SL-14 DEB in Echtzeit mit AllMySat

Download on the App Store